[[{"header":{"parameterUnit":"m.s-1","parameterCategory":1,"la1":30.2991,"la2":30.254,"lo1":-89.0895,"lo2":-89.0444,"dy":0.0017,"dx":0.0017,"nx":28,"ny":28,"refTime":"2025-08-23T09:00:00:Z","depth":0,"parameterNumber":2,"parameterNumberName":"U-component_of_WINDS"},"data":[0,0,0,0,0,0,0,0,0,0,0,0,0,0,0,0,0,0,0,0,0,0,0,0,0,0,0,0,0,0,0,0,0,0,0,0,0,0,0,0,0,0,0,0,0,0,0,0,0,0,0,0,0,0,0,0,0,0,1.1829,1.1829,0,1.1881,1.1881,1.1882,1.1896,1.1895,1.1895,1.1895,1.1948,1.195,1.1952,0,0,0,0,0,0,0,0,0,0,0,0,0,1.1743,1.1745,1.1829,1.183,1.183,1.188,1.1881,1.1882,1.1896,1.1895,1.1895,1.1895,1.1948,1.195,1.1952,0,0,0,0,0,0,0,0,0,0,0,0,0,1.1786,1.1745,1.1829,1.1843,1.1845,1.188,1.1881,1.1882,1.1896,1.1895,1.1895,1.1895,1.1947,1.195,1.1952,1.1977,0,0,1.196,1.1961,0,0,0,0,0,0,0,0,1.1784,1.1789,1.184,1.1842,1.1844,1.1881,1.1871,1.1914,1.1896,1.1877,1.1895,1.1894,1.1926,1.1931,1.1941,1.198,1.1982,1.196,1.1962,1.1963,1.1964,0,0,0,0,0,0,0,1.1781,1.1787,1.1849,1.1841,1.1844,1.1847,1.1853,1.1879,1.1903,1.1878,1.1879,1.1885,1.1927,1.1939,1.1943,1.1983,1.196,1.1962,1.1964,1.1965,1.2045,1.2046,0,0,0,0,0,0,1.1775,1.1785,1.1848,1.1851,1.1812,1.1849,1.1856,1.187,1.1903,1.1908,1.1886,1.1886,1.1935,1.194,1.1945,1.1977,1.1963,1.1965,1.1967,1.2045,1.2045,1.2046,0,0,0,0,0,0,1.1773,1.1781,1.1846,1.1818,1.1827,1.1851,1.1867,1.1871,1.1883,1.1909,1.1913,1.1893,1.1935,1.1941,1.1969,1.1979,1.1966,1.1969,1.2044,1.2045,1.2046,1.2042,0,0,0,0,0,0,1.1771,1.178,1.1789,1.1818,1.1828,1.1869,1.1868,1.1872,1.1887,1.1888,1.1917,1.1921,1.1935,1.1965,1.1972,1.1983,1.1971,1.2043,1.2044,1.2045,1.2041,1.2042,1.2043,0,0,0,0,0,1.1768,1.1786,1.179,1.1797,1.184,1.1869,1.1875,1.189,1.1888,1.1898,1.1915,1.192,1.1977,1.1968,1.1975,1.1987,1.2043,1.2044,1.2045,1.204,1.2042,1.2043,0,0,0,0,0,0,1.1758,1.179,1.1795,1.1823,1.1843,1.1872,1.1885,1.1891,1.1913,1.1913,1.1931,1.1937,1.1964,1.1978,1.1968,1.2014,1.201,1.2013,1.2004,1.2005,1.2006,1.2003,1.1973,0,0,0,0,0,1.1759,1.178,1.1807,1.1829,1.1839,1.186,1.1873,1.1883,1.1905,1.1914,1.1933,1.1954,1.1977,1.1992,1.2014,1.2043,1.205,1.2054,1.2055,1.2056,1.2059,1.2076,1.2079,1.205,1.205,1.205,0,0,1.1762,1.1782,1.1794,1.1828,1.1845,1.1866,1.1867,1.189,1.1906,1.1918,1.1946,1.196,1.1985,1.2014,1.2028,1.2026,1.2068,1.2058,1.2058,1.2061,1.2078,1.2081,1.2083,1.2051,1.2051,1.2051,0,0,1.1778,1.1794,1.1815,1.1832,1.1858,1.1872,1.1877,1.1905,1.1915,1.1943,1.1953,1.1972,1.2011,1.2029,1.2043,1.2066,1.2072,1.2072,1.2079,1.2096,1.2098,1.21,1.211,1.2113,1.2075,1.2075,1.2075,0,1.1778,1.181,1.1825,1.1848,1.1863,1.1874,1.1896,1.1911,1.1943,1.1954,1.1952,1.2001,1.2018,1.2052,1.2058,1.2068,1.2076,1.207,1.2096,1.2099,1.2101,1.211,1.2114,1.2075,1.2075,1.2075,1.2075,0,1.181,1.1832,1.1846,1.1877,1.1893,1.1915,1.1934,1.1949,1.1957,1.1971,1.2001,1.2022,1.2049,1.2058,1.2066,1.2093,1.2092,1.2093,1.209,1.2104,1.2113,1.2116,1.2075,1.2075,1.2075,1.2075,0,0,1.1822,1.186,1.1865,1.188,1.1909,1.1927,1.195,1.1976,1.1989,1.2011,1.2031,1.2063,1.2065,1.2081,1.2091,1.2106,1.2124,1.2105,1.2106,1.2109,1.2157,1.2157,1.2161,1.2128,1.2129,1.213,1.2155,0,1.1842,1.1883,1.1898,1.1932,1.1953,1.1964,1.1984,1.2004,1.2018,1.2039,1.2054,1.2078,1.2077,1.2087,1.2102,1.2119,1.2134,1.2117,1.2148,1.2149,1.2143,1.2165,1.2165,1.2189,1.2159,1.216,1.216,0,1.1872,1.1894,1.1931,1.1958,1.1968,1.1985,1.2011,1.203,1.2054,1.2063,1.2081,1.2091,1.2116,1.211,1.2145,1.2133,1.2146,1.2157,1.2158,1.2163,1.2156,1.2172,1.2197,1.2201,1.2165,1.2165,1.2165,0,1.1879,1.1918,1.1945,1.1957,1.1989,1.2001,1.2015,1.2038,1.2054,1.2076,1.2087,1.2112,1.2126,1.2146,1.2162,1.2156,1.2196,1.2192,1.2206,1.2205,1.2215,1.2214,1.2243,1.2221,1.2221,1.2221,1.2221,0,1.1902,1.1924,1.1949,1.1965,1.1991,1.2007,1.2031,1.2046,1.2067,1.2087,1.2097,1.2116,1.2136,1.2158,1.217,1.2198,1.2204,1.2213,1.2217,1.2213,1.2212,1.2223,1.2223,1.2222,1.2221,1.2221,1.2221,0,1.1914,1.1931,1.1962,1.199,1.1998,1.2015,1.2039,1.2056,1.207,1.2096,1.2103,1.2126,1.2152,1.217,1.2203,1.2212,1.2242,1.2245,1.2235,1.2237,1.225,1.2249,1.2288,1.2295,1.2267,1.2267,1.2267,0,1.1928,1.1946,1.1976,1.199,1.2004,1.2027,1.2043,1.2059,1.2075,1.2104,1.2118,1.2144,1.2167,1.2208,1.2228,1.2254,1.2258,1.227,1.2262,1.2258,1.226,1.2259,1.2262,1.2271,1.2272,1.2272,1.2272,0,1.1952,1.1959,1.1982,1.2007,1.2026,1.2047,1.2068,1.2079,1.2099,1.2117,1.2144,1.2161,1.2196,1.2223,1.225,1.2265,1.2273,1.2274,1.2279,1.2276,1.227,1.2275,1.224,1.2273,1.2273,1.2273,1.2273,1.2273,1.1967,1.1983,1.2007,1.2032,1.2049,1.2069,1.2086,1.2103,1.2125,1.2155,1.2163,1.2191,1.2215,1.2253,1.2269,1.2291,1.2291,1.2297,1.2299,1.2301,1.2302,1.2265,1.2296,1.2296,1.2296,1.2296,1.2296,0,1.1992,1.2008,1.203,1.206,1.2079,1.2083,1.2107,1.2124,1.2148,1.217,1.2192,1.2223,1.2249,1.2271,1.2298,1.2312,1.2317,1.2319,1.2319,1.2323,1.23,1.2294,1.2316,1.2316,1.2316,1.2316,1.2316,1.2316,1.2007,1.2036,1.2046,1.2084,1.21,1.2127,1.2141,1.2159,1.2177,1.2211,1.2233,1.2247,1.2269,1.2298,1.2322,1.2328,1.2338,1.2341,1.2347,1.2326,1.2324,1.2322,1.2317,1.2342,1.2342,1.2368,1.2369,1.2369]},{"header":{"parameterUnit":"m.s-1","parameterCategory":1,"la1":30.2991,"la2":30.254,"lo1":-89.0895,"lo2":-89.0444,"dy":0.0017,"dx":0.0017,"nx":28,"ny":28,"refTime":"2025-08-23T09:00:00:Z","depth":0,"parameterNumber":3,"parameterNumberName":"V-component_of_WINDS"},"data":[0,0,0,0,0,0,0,0,0,0,0,0,0,0,0,0,0,0,0,0,0,0,0,0,0,0,0,0,0,0,0,0,0,0,0,0,0,0,0,0,0,0,0,0,0,0,0,0,0,0,0,0,0,0,0,0,0,0,-2.5194,-2.5195,0,-2.529,-2.5291,-2.5292,-2.5326,-2.5325,-2.5325,-2.5325,-2.5422,-2.5425,-2.5428,0,0,0,0,0,0,0,0,0,0,0,0,0,-2.5041,-2.5043,-2.5194,-2.5195,-2.5196,-2.529,-2.5291,-2.5292,-2.5326,-2.5325,-2.5325,-2.5324,-2.5421,-2.5425,-2.5428,0,0,0,0,0,0,0,0,0,0,0,0,0,-2.5119,-2.5044,-2.5194,-2.5224,-2.5228,-2.529,-2.5291,-2.5293,-2.5326,-2.5325,-2.5325,-2.5324,-2.542,-2.5424,-2.5429,-2.5467,0,0,-2.5442,-2.5444,0,0,0,0,0,0,0,0,-2.5115,-2.5125,-2.5219,-2.5222,-2.5227,-2.5295,-2.5273,-2.5351,-2.5326,-2.5289,-2.5325,-2.5324,-2.538,-2.5388,-2.5407,-2.5471,-2.5475,-2.5442,-2.5445,-2.5447,-2.5448,0,0,0,0,0,0,0,-2.5109,-2.5121,-2.5232,-2.522,-2.5225,-2.5234,-2.5244,-2.5288,-2.5336,-2.5292,-2.5295,-2.5305,-2.5382,-2.5403,-2.541,-2.5477,-2.5442,-2.5446,-2.5449,-2.5451,-2.558,-2.558,0,0,0,0,0,0,-2.5099,-2.5116,-2.5229,-2.5235,-2.5168,-2.5237,-2.5249,-2.5274,-2.5336,-2.5345,-2.5306,-2.5307,-2.5396,-2.5404,-2.5413,-2.5464,-2.5447,-2.5451,-2.5454,-2.5579,-2.558,-2.5581,0,0,0,0,0,0,-2.5095,-2.5108,-2.5225,-2.5176,-2.5192,-2.524,-2.5268,-2.5276,-2.5296,-2.5347,-2.5355,-2.5318,-2.5395,-2.5407,-2.5454,-2.5467,-2.5453,-2.5457,-2.5578,-2.5579,-2.558,-2.5564,0,0,0,0,0,0,-2.5091,-2.5107,-2.5121,-2.5176,-2.5194,-2.5264,-2.5269,-2.5278,-2.5304,-2.5306,-2.536,-2.5368,-2.5396,-2.5447,-2.5458,-2.5473,-2.5461,-2.5577,-2.5578,-2.558,-2.5563,-2.5564,-2.5565,0,0,0,0,0,-2.5085,-2.5112,-2.5122,-2.5135,-2.5213,-2.5264,-2.5275,-2.5306,-2.5305,-2.532,-2.5353,-2.5367,-2.5464,-2.5451,-2.5464,-2.5481,-2.5576,-2.5578,-2.558,-2.5563,-2.5564,-2.5565,0,0,0,0,0,0,-2.5057,-2.512,-2.5131,-2.5177,-2.5215,-2.527,-2.529,-2.5306,-2.5345,-2.5345,-2.5382,-2.5394,-2.5438,-2.5464,-2.5449,-2.5522,-2.5521,-2.5525,-2.5504,-2.5505,-2.5506,-2.5499,-2.5464,0,0,0,0,0,-2.5056,-2.5092,-2.5145,-2.5181,-2.5199,-2.5241,-2.5265,-2.5286,-2.5326,-2.5343,-2.5378,-2.5418,-2.5457,-2.5483,-2.5522,-2.5567,-2.558,-2.5585,-2.5586,-2.5586,-2.559,-2.5618,-2.5621,-2.5586,-2.5586,-2.5586,0,0,-2.5055,-2.5094,-2.5114,-2.5176,-2.5208,-2.5245,-2.5255,-2.5293,-2.5321,-2.5348,-2.5395,-2.5423,-2.5469,-2.5516,-2.5538,-2.5539,-2.5603,-2.5588,-2.5588,-2.5592,-2.562,-2.5624,-2.5626,-2.5588,-2.5587,-2.5587,0,0,-2.5072,-2.5104,-2.5138,-2.517,-2.5219,-2.5247,-2.5255,-2.5308,-2.5328,-2.5376,-2.5398,-2.5432,-2.5499,-2.5532,-2.5557,-2.5588,-2.5603,-2.56,-2.5605,-2.5632,-2.5635,-2.5637,-2.565,-2.5654,-2.5603,-2.5603,-2.5603,0,-2.5064,-2.512,-2.5153,-2.5192,-2.5219,-2.5246,-2.5282,-2.5311,-2.537,-2.5388,-2.5388,-2.5475,-2.5507,-2.5563,-2.5571,-2.559,-2.5602,-2.5594,-2.5631,-2.5634,-2.5637,-2.565,-2.5655,-2.5603,-2.5603,-2.5603,-2.5603,0,-2.5109,-2.5148,-2.517,-2.5227,-2.5257,-2.5293,-2.5333,-2.5359,-2.5378,-2.5406,-2.5456,-2.5496,-2.5545,-2.556,-2.5578,-2.5619,-2.5618,-2.5624,-2.5624,-2.564,-2.5653,-2.5658,-2.5602,-2.5602,-2.5602,-2.5602,0,0,-2.511,-2.5187,-2.5194,-2.5222,-2.5278,-2.5309,-2.5348,-2.5396,-2.5419,-2.5459,-2.5493,-2.555,-2.5556,-2.5585,-2.5607,-2.5631,-2.5656,-2.5635,-2.5636,-2.5639,-2.5706,-2.5702,-2.5707,-2.5666,-2.5667,-2.5668,-2.5703,0,-2.5135,-2.5205,-2.5237,-2.5293,-2.5331,-2.5358,-2.5392,-2.5431,-2.5459,-2.5495,-2.5526,-2.5567,-2.5571,-2.5589,-2.5614,-2.5648,-2.567,-2.5645,-2.5699,-2.57,-2.5688,-2.5714,-2.5709,-2.574,-2.5708,-2.5709,-2.5709,0,-2.5174,-2.5215,-2.5275,-2.533,-2.5347,-2.5376,-2.5425,-2.5459,-2.5504,-2.5523,-2.5556,-2.5578,-2.562,-2.5616,-2.5676,-2.5659,-2.5682,-2.5702,-2.5705,-2.5712,-2.5707,-2.5723,-2.5751,-2.5756,-2.5717,-2.5717,-2.5716,0,-2.5171,-2.5241,-2.5287,-2.5309,-2.5373,-2.5394,-2.5422,-2.5466,-2.5494,-2.5536,-2.5555,-2.5601,-2.5627,-2.5662,-2.5696,-2.569,-2.5754,-2.5752,-2.5772,-2.5771,-2.5784,-2.5783,-2.5818,-2.5797,-2.5797,-2.5797,-2.5797,0,-2.5196,-2.5232,-2.5287,-2.5315,-2.5357,-2.5393,-2.5434,-2.5463,-2.5503,-2.5539,-2.5564,-2.5597,-2.5639,-2.5677,-2.5704,-2.5751,-2.5762,-2.5779,-2.5786,-2.5778,-2.5776,-2.5794,-2.5794,-2.5798,-2.5798,-2.5798,-2.5797,0,-2.52,-2.5237,-2.5289,-2.5347,-2.5362,-2.539,-2.5439,-2.5468,-2.5498,-2.5543,-2.5555,-2.5602,-2.5648,-2.5686,-2.5746,-2.5764,-2.5814,-2.5821,-2.5799,-2.5803,-2.5821,-2.5819,-2.587,-2.5879,-2.5851,-2.5851,-2.5851,0,-2.5214,-2.5243,-2.5303,-2.5329,-2.5357,-2.5397,-2.5427,-2.5464,-2.5494,-2.5549,-2.5571,-2.562,-2.5661,-2.5734,-2.5774,-2.5821,-2.583,-2.5844,-2.5837,-2.5828,-2.5832,-2.5831,-2.5835,-2.5845,-2.5846,-2.5846,-2.5846,0,-2.5236,-2.5254,-2.5295,-2.5343,-2.5378,-2.5417,-2.5457,-2.5477,-2.5522,-2.5554,-2.5603,-2.5634,-2.5697,-2.5746,-2.5797,-2.5826,-2.5844,-2.5848,-2.5855,-2.5847,-2.5834,-2.5844,-2.5803,-2.5847,-2.5846,-2.5846,-2.5846,-2.5846,-2.5246,-2.5274,-2.5322,-2.5367,-2.5402,-2.544,-2.5471,-2.5505,-2.5546,-2.5601,-2.562,-2.5671,-2.5717,-2.5788,-2.5818,-2.5858,-2.586,-2.587,-2.5873,-2.5875,-2.5875,-2.5827,-2.5867,-2.5867,-2.5868,-2.5868,-2.5868,0,-2.5271,-2.5304,-2.5345,-2.5402,-2.5438,-2.5452,-2.5498,-2.5528,-2.5572,-2.5614,-2.5654,-2.5711,-2.5759,-2.5803,-2.5853,-2.5877,-2.5887,-2.5889,-2.5888,-2.5895,-2.587,-2.5859,-2.588,-2.588,-2.588,-2.588,-2.588,-2.588,-2.5288,-2.5336,-2.536,-2.5427,-2.5459,-2.5509,-2.5535,-2.557,-2.5604,-2.5667,-2.5707,-2.5736,-2.5779,-2.5833,-2.5878,-2.589,-2.5908,-2.5908,-2.5923,-2.5898,-2.5896,-2.5895,-2.5885,-2.5912,-2.5912,-2.5945,-2.5945,-2.5946]}]]